THOR ABLESTAR DEB, 3744

Orbit data source: Space-Track

THOR ABLESTAR DEB, 3744 is space debris in LEO originally from a launch on Thu, 29 Jun 1961 UTC launched from the Air Force Eastern Test Range (AFETR). Debris objects in space refer to the collection of defunct objects orbiting the Earth. Examples of debris include non-operational satellites, rocket bodies, and fragments generated from explosions, collisions, or faulty payload assembly.

Loading next visibility...
Identifier
3744, 1961-015JC
Orbit
LEO
Country
Flag of USUS
Related business
Manufacturer
Unknown
Mission
Spacecraft
Bus & Motor
Unknown
Mass
Unknown
Launch date (UTC)
1961-06-29 (65 years ago)
Launch vehicle
Unknown
Launch site
Air Force Eastern Test Range (AFETR)
Object type
Payload
Rocket body
Debris
Shape & HBR
Unknown shape, 0.1 m
Radar Cross Section
Small (<0.1 m²)

Expand to show TLE details & history
Last TLE update: 1 day ago

TLE from 1 day ago
0 THOR ABLESTAR DEB
1 03744U 61015JC  26106.42093212  .00001958  00000-0  12685-2 0  9996
2 03744  66.9752 265.6390 0119152 155.1972 205.4908 14.01323867871879
Epoch: 2026-04-16T10:06Z
TLE epoch observation values (Epoch: 2026-04-16T10:06:08.535Z)
Latitude
0.00003°
Longitude
-90.46527°
Altitude
969.675 km
Speed
7.327 km/s
True Right ascension
17h 42m 33s
True Declination
0° 00' 00"
Sunlit
Object was in daylight at epoch
Visualization orbit readout
Latitude
Unknown
Longitude
Unknown
Altitude
Unknown
Speed
Unknown
Apparent Right ascension
Unknown
Apparent Declination
Unknown
Sunlit
N/A
Visualization observer readout
Local Sidereal Time
02:06:04
Azimuth
Unknown
Elevation
Unknown
Doppler factor
Unknown
Orbital elements
Apogee altitude
974.152 km
Perigee altitude
801.007 km
Semi-major axis
7,265.716 km
Eccentricity
0.01192
Inclination
66.9752°
RAAN
265.639°
Arg. of periapsis
155.1972°
True anomaly
204.911°
Mean anomaly
205.4908°
Eccentric anomaly
205.20012°
Mean motion
3.5045 °/min
Orbital period
102.73 mins
BSTAR
0.0012685
Loading maneuver chart data...
Computing Atmospheric mass density...
Loading historical data...
Loading historical data...
Loading historical data...
Loading historical data...
Loading historical data...
Loading historical data...
Loading historical data...

Documentation

Showing up to 5 results
|